owner,sensor,date,latitude,longitude,vertical_datum,direction_of_sea_water_velocity,sea_water_speed,upward_sea_water_velocity,qcFlag 
TABS,ioos:station:wmo:42046:1,2014-12-01T00:00:00Z,27.8903,-94.0367,2.0,94.5231848,13.06067762,-99999.0,'11111222,11111222,99999999' 
TABS,ioos:station:wmo:42046:1,2014-12-01T00:30:00Z,27.8903,-94.0367,2.0,102.0787569,17.53828384,-99999.0,'11111222,11111222,99999999' 
TABS,ioos:station:wmo:42046:1,2014-12-01T01:00:00Z,27.8903,-94.0367,2.0,114.6834703,25.33489293,-99999.0,'11111222,11111222,99999999' 
TABS,ioos:station:wmo:42046:1,2014-12-01T01:30:00Z,27.8903,-94.0367,2.0,117.2361732,13.74381679,-99999.0,'11111222,11111222,99999999' 
TABS,ioos:station:wmo:42046:1,2014-12-01T02:00:00Z,27.8903,-94.0367,2.0,118.0030714,21.38354508,-99999.0,'11111222,11111222,99999999' 
TABS,ioos:station:wmo:42046:1,2014-12-01T02:30:00Z,27.8903,-94.0367,2.0,118.376426,18.95791391,-99999.0,'11111222,11111222,99999999' 
TABS,ioos:station:wmo:42046:1,2014-12-01T03:00:00Z,27.8903,-94.0367,2.0,0.0,0.0,-99999.0,'11133222,11111222,99999999' 
TABS,ioos:station:wmo:42046:1,2014-12-01T03:30:00Z,27.8903,-94.0367,2.0,140.1435071,18.77149435,-99999.0,'11111222,11111222,99999999' 
TABS,ioos:station:wmo:42046:1,2014-12-01T04:00:00Z,27.8903,-94.0367,2.0,0.0,0.0,-99999.0,'11133222,11111222,99999999' 
TABS,ioos:station:wmo:42046:1,2014-12-01T04:30:00Z,27.8903,-94.0367,2.0,136.9228104,22.54819061,-99999.0,'11111222,11111222,99999999' 
TABS,ioos:station:wmo:42046:1,2014-12-01T05:00:00Z,27.8903,-94.0367,2.0,132.2806746,21.76096505,-99999.0,'11111222,11111222,99999999' 
TABS,ioos:station:wmo:42046:1,2014-12-01T05:30:00Z,27.8903,-94.0367,2.0,132.8423064,19.72104713,-99999.0,'11111222,11111222,99999999' 
TABS,ioos:station:wmo:42046:1,2014-12-01T06:00:00Z,27.8903,-94.0367,2.0,117.0573614,28.62272698,-99999.0,'11111222,11111222,99999999' 
TABS,ioos:station:wmo:42046:1,2014-12-01T06:30:00Z,27.8903,-94.0367,2.0,128.0047188,25.54701157,-99999.0,'11111222,11111222,99999999' 
TABS,ioos:station:wmo:42046:1,2014-12-01T07:00:00Z,27.8903,-94.0367,2.0,133.8625131,20.30503632,-99999.0,'11111222,11111222,99999999' 
TABS,ioos:station:wmo:42046:1,2014-12-01T07:30:00Z,27.8903,-94.0367,2.0,124.3160278,29.4452441,-99999.0,'11111222,11111222,99999999' 
TABS,ioos:station:wmo:42046:1,2014-12-01T08:00:00Z,27.8903,-94.0367,2.0,0.0,0.0,-99999.0,'11133222,11111222,99999999' 
TABS,ioos:station:wmo:42046:1,2014-12-01T08:30:00Z,27.8903,-94.0367,2.0,0.0,0.0,-99999.0,'11133222,11111222,99999999' 
TABS,ioos:station:wmo:42046:1,2014-12-01T09:00:00Z,27.8903,-94.0367,2.0,0.0,0.0,-99999.0,'11133222,11111222,99999999' 
TABS,ioos:station:wmo:42046:1,2014-12-01T09:30:00Z,27.8903,-94.0367,2.0,0.0,0.0,-99999.0,'11133222,11111222,99999999' 
TABS,ioos:station:wmo:42046:1,2014-12-01T10:00:00Z,27.8903,-94.0367,2.0,0.0,0.0,-99999.0,'11133222,11111222,99999999' 
TABS,ioos:station:wmo:42046:1,2014-12-01T10:30:00Z,27.8903,-94.0367,2.0,0.0,0.0,-99999.0,'11133222,11111222,99999999' 
TABS,ioos:station:wmo:42046:1,2014-12-01T11:00:00Z,27.8903,-94.0367,2.0,152.8302134,14.41002429,-99999.0,'11111222,11111222,99999999' 
TABS,ioos:station:wmo:42046:1,2014-12-01T11:30:00Z,27.8903,-94.0367,2.0,133.9914947,25.71438508,-99999.0,'11111222,11111222,99999999' 
TABS,ioos:station:wmo:42046:1,2014-12-01T12:00:00Z,27.8903,-94.0367,2.0,0.0,0.0,-99999.0,'11133222,11111222,99999999' 
TABS,ioos:station:wmo:42046:1,2014-12-01T12:30:00Z,27.8903,-94.0367,2.0,0.0,0.0,-99999.0,'11133222,11111222,99999999' 
TABS,ioos:station:wmo:42046:1,2014-12-01T13:00:00Z,27.8903,-94.0367,2.0,0.0,0.0,-99999.0,'11133222,11111222,99999999' 
TABS,ioos:station:wmo:42046:1,2014-12-01T13:30:00Z,27.8903,-94.0367,2.0,139.4391162,21.46852813,-99999.0,'11111222,11111222,99999999' 
TABS,ioos:station:wmo:42046:1,2014-12-01T14:00:00Z,27.8903,-94.0367,2.0,133.5016184,26.77314513,-99999.0,'11111222,11111222,99999999' 
TABS,ioos:station:wmo:42046:1,2014-12-01T14:30:00Z,27.8903,-94.0367,2.0,145.3311648,21.92217599,-99999.0,'11111222,11111222,99999999' 
TABS,ioos:station:wmo:42046:1,2014-12-01T15:00:00Z,27.8903,-94.0367,2.0,137.620686,21.18586557,-99999.0,'11111222,11111222,99999999' 
TABS,ioos:station:wmo:42046:1,2014-12-01T15:30:00Z,27.8903,-94.0367,2.0,127.0475354,25.14612097,-99999.0,'11111222,11111222,99999999' 
TABS,ioos:station:wmo:42046:1,2014-12-01T16:00:00Z,27.8903,-94.0367,2.0,112.3944396,21.70709101,-99999.0,'11111222,11111222,99999999' 
TABS,ioos:station:wmo:42046:1,2014-12-01T16:30:00Z,27.8903,-94.0367,2.0,122.5594621,25.86515803,-99999.0,'11111222,11111222,99999999' 
TABS,ioos:station:wmo:42046:1,2014-12-01T17:00:00Z,27.8903,-94.0367,2.0,121.9748239,23.90719557,-99999.0,'11111222,11111222,99999999' 
TABS,ioos:station:wmo:42046:1,2014-12-01T17:30:00Z,27.8903,-94.0367,2.0,126.4478712,28.24476589,-99999.0,'11111222,11111222,99999999' 
TABS,ioos:station:wmo:42046:1,2014-12-01T18:00:00Z,27.8903,-94.0367,2.0,117.7081119,29.14176556,-99999.0,'11111222,11111222,99999999' 
TABS,ioos:station:wmo:42046:1,2014-12-01T18:30:00Z,27.8903,-94.0367,2.0,118.1090661,22.07353393,-99999.0,'11111222,11111222,99999999' 
TABS,ioos:station:wmo:42046:1,2014-12-01T19:00:00Z,27.8903,-94.0367,2.0,135.7202253,23.06057458,-99999.0,'11111222,11111222,99999999' 
TABS,ioos:station:wmo:42046:1,2014-12-01T19:30:00Z,27.8903,-94.0367,2.0,114.4746434,29.30304592,-99999.0,'11111222,11111222,99999999' 
TABS,ioos:station:wmo:42046:1,2014-12-01T20:00:00Z,27.8903,-94.0367,2.0,106.5005458,21.54738963,-99999.0,'11111222,11111222,99999999' 
TABS,ioos:station:wmo:42046:1,2014-12-01T20:30:00Z,27.8903,-94.0367,2.0,107.2897252,24.999636,-99999.0,'11111222,11111222,99999999' 
TABS,ioos:station:wmo:42046:1,2014-12-01T21:00:00Z,27.8903,-94.0367,2.0,114.0878238,28.76482574,-99999.0,'11111222,11111222,99999999' 
TABS,ioos:station:wmo:42046:1,2014-12-01T21:30:00Z,27.8903,-94.0367,2.0,0.0,0.0,-99999.0,'11133222,11111222,99999999' 
TABS,ioos:station:wmo:42046:1,2014-12-01T22:00:00Z,27.8903,-94.0367,2.0,108.7797098,25.22278335,-99999.0,'11111222,11111222,99999999' 
TABS,ioos:station:wmo:42046:1,2014-12-01T22:30:00Z,27.8903,-94.0367,2.0,112.1153671,27.78415376,-99999.0,'11111222,11111222,99999999' 
TABS,ioos:station:wmo:42046:1,2014-12-01T23:00:00Z,27.8903,-94.0367,2.0,113.6427593,29.29928497,-99999.0,'11111222,11111222,99999999' 
TABS,ioos:station:wmo:42046:1,2014-12-01T23:30:00Z,27.8903,-94.0367,2.0,124.2022919,34.12097302,-99999.0,'11111222,11111222,99999999' 
TABS,ioos:station:wmo:42046:1,2014-12-02T00:00:00Z,27.8903,-94.0367,2.0,126.9506321,18.43201834,-99999.0,'11111222,11111222,99999999' 
TABS,ioos:station:wmo:42046:1,2014-12-02T00:30:00Z,27.8903,-94.0367,2.0,123.4483638,21.04551259,-99999.0,'11111222,11111222,99999999' 
TABS,ioos:station:wmo:42046:1,2014-12-02T01:00:00Z,27.8903,-94.0367,2.0,144.7249501,27.3766068,-99999.0,'11111222,11111222,99999999' 
TABS,ioos:station:wmo:42046:1,2014-12-02T01:30:00Z,27.8903,-94.0367,2.0,142.2213241,27.6194732,-99999.0,'11111222,11111222,99999999' 
TABS,ioos:station:wmo:42046:1,2014-12-02T02:00:00Z,27.8903,-94.0367,2.0,152.2894421,25.50521515,-99999.0,'11111222,11111222,99999999' 
TABS,ioos:station:wmo:42046:1,2014-12-02T02:30:00Z,27.8903,-94.0367,2.0,142.4943714,23.25743107,-99999.0,'11111222,11111222,99999999' 
TABS,ioos:station:wmo:42046:1,2014-12-02T03:00:00Z,27.8903,-94.0367,2.0,161.152692,26.37407818,-99999.0,'11111222,11111222,99999999' 
TABS,ioos:station:wmo:42046:1,2014-12-02T03:30:00Z,27.8903,-94.0367,2.0,149.9196414,26.91475803,-99999.0,'11111222,11111222,99999999' 
TABS,ioos:station:wmo:42046:1,2014-12-02T04:00:00Z,27.8903,-94.0367,2.0,149.0361054,22.68240287,-99999.0,'11111222,11111222,99999999' 
TABS,ioos:station:wmo:42046:1,2014-12-02T04:30:00Z,27.8903,-94.0367,2.0,151.3128509,22.10303599,-99999.0,'11111222,11111222,99999999' 
TABS,ioos:station:wmo:42046:1,2014-12-02T05:00:00Z,27.8903,-94.0367,2.0,154.589916,17.52539015,-99999.0,'11111222,11111222,99999999' 
TABS,ioos:station:wmo:42046:1,2014-12-02T05:30:00Z,27.8903,-94.0367,2.0,154.1460461,27.38052593,-99999.0,'11111222,11111222,99999999' 
TABS,ioos:station:wmo:42046:1,2014-12-02T06:00:00Z,27.8903,-94.0367,2.0,172.5581612,19.30258014,-99999.0,'11111222,11111222,99999999' 
TABS,ioos:station:wmo:42046:1,2014-12-02T06:30:00Z,27.8903,-94.0367,2.0,160.8917284,24.22471878,-99999.0,'11111222,11111222,99999999' 
TABS,ioos:station:wmo:42046:1,2014-12-02T07:00:00Z,27.8903,-94.0367,2.0,159.9639908,23.20436381,-99999.0,'11111222,11111222,99999999' 
TABS,ioos:station:wmo:42046:1,2014-12-02T07:30:00Z,27.8903,-94.0367,2.0,162.372654,30.28181798,-99999.0,'11111222,11111222,99999999' 
TABS,ioos:station:wmo:42046:1,2014-12-02T08:00:00Z,27.8903,-94.0367,2.0,166.0502525,32.06567168,-99999.0,'11111222,11111222,99999999' 
TABS,ioos:station:wmo:42046:1,2014-12-02T08:30:00Z,27.8903,-94.0367,2.0,171.8871904,23.1718903,-99999.0,'11111222,11111222,99999999' 
TABS,ioos:station:wmo:42046:1,2014-12-02T09:00:00Z,27.8903,-94.0367,2.0,161.2846321,27.79991547,-99999.0,'11111222,11111222,99999999' 
TABS,ioos:station:wmo:42046:1,2014-12-02T09:30:00Z,27.8903,-94.0367,2.0,164.0822815,22.60680429,-99999.0,'11111222,11111222,99999999' 
TABS,ioos:station:wmo:42046:1,2014-12-02T10:00:00Z,27.8903,-94.0367,2.0,169.9519442,24.13009946,-99999.0,'11111222,11111222,99999999' 
TABS,ioos:station:wmo:42046:1,2014-12-02T10:30:00Z,27.8903,-94.0367,2.0,162.7217063,25.2179797,-99999.0,'11111222,11111222,99999999' 
TABS,ioos:station:wmo:42046:1,2014-12-02T11:00:00Z,27.8903,-94.0367,2.0,158.355405,22.36708743,-99999.0,'11111222,11111222,99999999' 
TABS,ioos:station:wmo:42046:1,2014-12-02T11:30:00Z,27.8903,-94.0367,2.0,160.8985984,24.20254739,-99999.0,'11111222,11111222,99999999' 
TABS,ioos:station:wmo:42046:1,2014-12-02T12:00:00Z,27.8903,-94.0367,2.0,0.0,0.0,-99999.0,'11133222,11111222,99999999' 
TABS,ioos:station:wmo:42046:1,2014-12-02T12:30:00Z,27.8903,-94.0367,2.0,149.4741848,12.56092353,-99999.0,'11111222,11111222,99999999' 
TABS,ioos:station:wmo:42046:1,2014-12-02T13:00:00Z,27.8903,-94.0367,2.0,0.0,0.0,-99999.0,'11133222,11111222,99999999' 
TABS,ioos:station:wmo:42046:1,2014-12-02T13:30:00Z,27.8903,-94.0367,2.0,170.8172726,17.17003494,-99999.0,'11111222,11111222,99999999' 
TABS,ioos:station:wmo:42046:1,2014-12-02T14:00:00Z,27.8903,-94.0367,2.0,158.198431,15.3477197,-99999.0,'11111222,11111222,99999999' 
TABS,ioos:station:wmo:42046:1,2014-12-02T14:30:00Z,27.8903,-94.0367,2.0,148.5903549,18.95802732,-99999.0,'11111222,11111222,99999999' 
TABS,ioos:station:wmo:42046:1,2014-12-02T15:00:00Z,27.8903,-94.0367,2.0,149.5961258,13.15971504,-99999.0,'11111222,11111222,99999999' 
TABS,ioos:station:wmo:42046:1,2014-12-02T15:30:00Z,27.8903,-94.0367,2.0,158.1061676,17.29754318,-99999.0,'11111222,11111222,99999999' 
TABS,ioos:station:wmo:42046:1,2014-12-02T16:00:00Z,27.8903,-94.0367,2.0,137.1716241,13.62158948,-99999.0,'11111222,11111222,99999999' 
TABS,ioos:station:wmo:42046:1,2014-12-02T16:30:00Z,27.8903,-94.0367,2.0,142.9816778,17.77205953,-99999.0,'11111222,11111222,99999999' 
TABS,ioos:station:wmo:42046:1,2014-12-02T17:00:00Z,27.8903,-94.0367,2.0,137.0870049,19.4158904,-99999.0,'11111222,11111222,99999999' 
TABS,ioos:station:wmo:42046:1,2014-12-02T17:30:00Z,27.8903,-94.0367,2.0,132.3148938,20.52863366,-99999.0,'11111222,11111222,99999999' 
TABS,ioos:station:wmo:42046:1,2014-12-02T18:00:00Z,27.8903,-94.0367,2.0,150.1603383,16.52020884,-99999.0,'11111222,11111222,99999999' 
TABS,ioos:station:wmo:42046:1,2014-12-02T18:30:00Z,27.8903,-94.0367,2.0,142.7865273,18.68433569,-99999.0,'11111222,11111222,99999999' 
TABS,ioos:station:wmo:42046:1,2014-12-02T19:00:00Z,27.8903,-94.0367,2.0,135.4211787,21.15720681,-99999.0,'11111222,11111222,99999999' 
TABS,ioos:station:wmo:42046:1,2014-12-02T19:30:00Z,27.8903,-94.0367,2.0,131.7994399,21.7845817,-99999.0,'11111222,11111222,99999999' 
TABS,ioos:station:wmo:42046:1,2014-12-02T20:00:00Z,27.8903,-94.0367,2.0,140.6643502,21.85022883,-99999.0,'11111222,11111222,99999999' 
TABS,ioos:station:wmo:42046:1,2014-12-02T20:30:00Z,27.8903,-94.0367,2.0,137.2234725,20.776299,-99999.0,'11111222,11111222,99999999' 
TABS,ioos:station:wmo:42046:1,2014-12-02T21:00:00Z,27.8903,-94.0367,2.0,142.809463,19.30630208,-99999.0,'11111222,11111222,99999999' 
TABS,ioos:station:wmo:42046:1,2014-12-02T21:30:00Z,27.8903,-94.0367,2.0,137.0427407,22.61350481,-99999.0,'11111222,11111222,99999999' 
TABS,ioos:station:wmo:42046:1,2014-12-02T22:00:00Z,27.8903,-94.0367,2.0,149.5319324,24.37600665,-99999.0,'11111222,11111222,99999999' 
TABS,ioos:station:wmo:42046:1,2014-12-02T22:30:00Z,27.8903,-94.0367,2.0,138.2857549,24.79657436,-99999.0,'11111222,11111222,99999999' 
TABS,ioos:station:wmo:42046:1,2014-12-02T23:00:00Z,27.8903,-94.0367,2.0,0.0,0.0,-99999.0,'11133222,11111222,99999999' 
TABS,ioos:station:wmo:42046:1,2014-12-02T23:30:00Z,27.8903,-94.0367,2.0,151.9419887,16.13647111,-99999.0,'11111222,11111222,99999999' 
TABS,ioos:station:wmo:42046:1,2014-12-03T00:00:00Z,27.8903,-94.0367,2.0,158.2889097,9.407337562,-99999.0,'11133222,11111222,99999999' 
TABS,ioos:station:wmo:42046:1,2014-12-03T00:30:00Z,27.8903,-94.0367,2.0,154.2874172,23.14139365,-99999.0,'11111222,11111222,99999999' 
TABS,ioos:station:wmo:42046:1,2014-12-03T01:00:00Z,27.8903,-94.0367,2.0,155.4348474,13.71097735,-99999.0,'11111222,11111222,99999999' 
TABS,ioos:station:wmo:42046:1,2014-12-03T01:30:00Z,27.8903,-94.0367,2.0,147.5653947,13.16342281,-99999.0,'11111222,11111222,99999999' 
TABS,ioos:station:wmo:42046:1,2014-12-03T02:00:00Z,27.8903,-94.0367,2.0,146.7138774,9.438458561,-99999.0,'11133222,11111222,99999999' 
TABS,ioos:station:wmo:42046:1,2014-12-03T02:30:00Z,27.8903,-94.0367,2.0,151.2533657,12.10142554,-99999.0,'11111222,11111222,99999999' 
TABS,ioos:station:wmo:42046:1,2014-12-03T03:00:00Z,27.8903,-94.0367,2.0,136.9558402,14.70932017,-99999.0,'11111222,11111222,99999999' 
TABS,ioos:station:wmo:42046:1,2014-12-03T03:30:00Z,27.8903,-94.0367,2.0,123.4375281,11.95945233,-99999.0,'11111222,11111222,99999999' 
TABS,ioos:station:wmo:42046:1,2014-12-03T04:00:00Z,27.8903,-94.0367,2.0,143.3186273,12.75606914,-99999.0,'11111222,11111222,99999999' 
TABS,ioos:station:wmo:42046:1,2014-12-03T04:30:00Z,27.8903,-94.0367,2.0,139.2425422,11.94748928,-99999.0,'11111222,11111222,99999999' 
TABS,ioos:station:wmo:42046:1,2014-12-03T05:00:00Z,27.8903,-94.0367,2.0,144.8151047,7.549264865,-99999.0,'11133222,11111222,99999999' 
TABS,ioos:station:wmo:42046:1,2014-12-03T05:30:00Z,27.8903,-94.0367,2.0,162.0469072,10.90075685,-99999.0,'11111222,11111222,99999999' 
TABS,ioos:station:wmo:42046:1,2014-12-03T06:00:00Z,27.8903,-94.0367,2.0,148.272373,15.95421574,-99999.0,'11111222,11111222,99999999' 
TABS,ioos:station:wmo:42046:1,2014-12-03T06:30:00Z,27.8903,-94.0367,2.0,151.538052,14.45739257,-99999.0,'11111222,11111222,99999999' 
TABS,ioos:station:wmo:42046:1,2014-12-03T07:00:00Z,27.8903,-94.0367,2.0,125.2340824,11.63073944,-99999.0,'11111222,11111222,99999999' 
TABS,ioos:station:wmo:42046:1,2014-12-03T07:30:00Z,27.8903,-94.0367,2.0,163.5971025,9.809230347,-99999.0,'11133222,11111222,99999999' 
TABS,ioos:station:wmo:42046:1,2014-12-03T08:00:00Z,27.8903,-94.0367,2.0,158.8797635,10.46281511,-99999.0,'11111222,11111222,99999999' 
TABS,ioos:station:wmo:42046:1,2014-12-03T08:30:00Z,27.8903,-94.0367,2.0,167.5965651,18.80900051,-99999.0,'11111222,11111222,99999999' 
TABS,ioos:station:wmo:42046:1,2014-12-03T09:00:00Z,27.8903,-94.0367,2.0,166.4313459,9.80361668,-99999.0,'11133222,11111222,99999999' 
TABS,ioos:station:wmo:42046:1,2014-12-03T09:30:00Z,27.8903,-94.0367,2.0,166.6157682,12.57143588,-99999.0,'11111222,11111222,99999999' 
TABS,ioos:station:wmo:42046:1,2014-12-03T10:00:00Z,27.8903,-94.0367,2.0,135.8047615,5.537192429,-99999.0,'11133222,11111222,99999999' 
TABS,ioos:station:wmo:42046:1,2014-12-03T10:30:00Z,27.8903,-94.0367,2.0,171.2328997,8.398118837,-99999.0,'11133222,11111222,99999999' 
TABS,ioos:station:wmo:42046:1,2014-12-03T11:00:00Z,27.8903,-94.0367,2.0,142.6575866,6.792230856,-99999.0,'11133222,11111222,99999999' 
TABS,ioos:station:wmo:42046:1,2014-12-03T11:30:00Z,27.8903,-94.0367,2.0,111.9314847,10.62922857,-99999.0,'11111222,11111222,99999999' 
TABS,ioos:station:wmo:42046:1,2014-12-03T12:00:00Z,27.8903,-94.0367,2.0,161.0826824,4.133243279,-99999.0,'11133222,11111222,99999999' 
TABS,ioos:station:wmo:42046:1,2014-12-03T12:30:00Z,27.8903,-94.0367,2.0,187.0916799,4.292842881,-99999.0,'11133222,11111222,99999999' 
TABS,ioos:station:wmo:42046:1,2014-12-03T13:00:00Z,27.8903,-94.0367,2.0,135.1800692,4.497221364,-99999.0,'11133222,11111222,99999999' 
TABS,ioos:station:wmo:42046:1,2014-12-03T13:30:00Z,27.8903,-94.0367,2.0,185.2038084,5.402268042,-99999.0,'11133222,11111222,99999999' 
TABS,ioos:station:wmo:42046:1,2014-12-03T14:00:00Z,27.8903,-94.0367,2.0,202.0676375,3.992492956,-99999.0,'11133222,11111222,99999999' 
TABS,ioos:station:wmo:42046:1,2014-12-03T14:30:00Z,27.8903,-94.0367,2.0,189.4620896,4.744554774,-99999.0,'11133222,11111222,99999999' 
TABS,ioos:station:wmo:42046:1,2014-12-03T15:00:00Z,27.8903,-94.0367,2.0,45.21152732,1.916272423,-99999.0,'11133222,11111222,99999999' 
TABS,ioos:station:wmo:42046:1,2014-12-03T15:30:00Z,27.8903,-94.0367,2.0,133.4487477,7.314164341,-99999.0,'11133222,11111222,99999999' 
TABS,ioos:station:wmo:42046:1,2014-12-03T16:00:00Z,27.8903,-94.0367,2.0,178.4722677,5.251866335,-99999.0,'11133222,11111222,99999999' 
TABS,ioos:station:wmo:42046:1,2014-12-03T16:30:00Z,27.8903,-94.0367,2.0,76.28819503,5.568707211,-99999.0,'11133222,11111222,99999999' 
TABS,ioos:station:wmo:42046:1,2014-12-03T17:00:00Z,27.8903,-94.0367,2.0,245.318073,2.99347624,-99999.0,'11133222,11111222,99999999' 
TABS,ioos:station:wmo:42046:1,2014-12-03T17:30:00Z,27.8903,-94.0367,2.0,152.0402381,2.388828165,-99999.0,'11133222,11111222,99999999' 
TABS,ioos:station:wmo:42046:1,2014-12-03T18:00:00Z,27.8903,-94.0367,2.0,65.33120306,5.271062511,-99999.0,'11133222,11111222,99999999' 
TABS,ioos:station:wmo:42046:1,2014-12-03T18:30:00Z,27.8903,-94.0367,2.0,204.9502553,3.650712259,-99999.0,'11133222,11111222,99999999' 
TABS,ioos:station:wmo:42046:1,2014-12-03T19:00:00Z,27.8903,-94.0367,2.0,123.9097919,2.168893727,-99999.0,'11133222,11111222,99999999' 
TABS,ioos:station:wmo:42046:1,2014-12-03T19:30:00Z,27.8903,-94.0367,2.0,197.4609254,2.232890503,-99999.0,'11133222,11111222,99999999' 
TABS,ioos:station:wmo:42046:1,2014-12-03T20:00:00Z,27.8903,-94.0367,2.0,155.957465,4.369038796,-99999.0,'11133222,11111222,99999999' 
TABS,ioos:station:wmo:42046:1,2014-12-03T20:30:00Z,27.8903,-94.0367,2.0,147.0113451,2.718234721,-99999.0,'11133222,11111222,99999999' 
TABS,ioos:station:wmo:42046:1,2014-12-03T21:00:00Z,27.8903,-94.0367,2.0,311.8781925,0.389486842,-99999.0,'11133222,11111222,99999999' 
TABS,ioos:station:wmo:42046:1,2014-12-03T21:30:00Z,27.8903,-94.0367,2.0,174.9678671,3.192303244,-99999.0,'11133222,11111222,99999999' 
TABS,ioos:station:wmo:42046:1,2014-12-03T22:00:00Z,27.8903,-94.0367,2.0,319.1924995,2.708394358,-99999.0,'11133222,11111222,99999999' 
TABS,ioos:station:wmo:42046:1,2014-12-03T22:30:00Z,27.8903,-94.0367,2.0,40.75745783,2.389497855,-99999.0,'11133222,11111222,99999999' 
TABS,ioos:station:wmo:42046:1,2014-12-03T23:00:00Z,27.8903,-94.0367,2.0,238.1882952,3.130191687,-99999.0,'11133222,11111222,99999999' 
TABS,ioos:station:wmo:42046:1,2014-12-03T23:30:00Z,27.8903,-94.0367,2.0,178.3632163,2.801142624,-99999.0,'11133222,11111222,99999999' 
TABS,ioos:station:wmo:42046:1,2014-12-04T00:00:00Z,27.8903,-94.0367,2.0,186.7407937,5.367103502,-99999.0,'11133222,11111222,99999999' 
TABS,ioos:station:wmo:42046:1,2014-12-04T00:30:00Z,27.8903,-94.0367,2.0,147.8041309,0.638122245,-99999.0,'11133222,11111222,99999999' 
TABS,ioos:station:wmo:42046:1,2014-12-04T01:00:00Z,27.8903,-94.0367,2.0,202.9577913,1.563873396,-99999.0,'11133222,11111222,99999999' 
TABS,ioos:station:wmo:42046:1,2014-12-04T01:30:00Z,27.8903,-94.0367,2.0,217.2285205,6.066119023,-99999.0,'11133222,11111222,99999999' 
TABS,ioos:station:wmo:42046:1,2014-12-04T02:00:00Z,27.8903,-94.0367,2.0,254.1672295,2.785677655,-99999.0,'11133222,11111222,99999999' 
TABS,ioos:station:wmo:42046:1,2014-12-04T02:30:00Z,27.8903,-94.0367,2.0,178.8846866,4.110778515,-99999.0,'11133222,11111222,99999999' 
TABS,ioos:station:wmo:42046:1,2014-12-04T03:00:00Z,27.8903,-94.0367,2.0,98.91747392,4.322244787,-99999.0,'11133222,11111222,99999999' 
TABS,ioos:station:wmo:42046:1,2014-12-04T03:30:00Z,27.8903,-94.0367,2.0,108.8860432,2.008108563,-99999.0,'11133222,11111222,99999999' 
TABS,ioos:station:wmo:42046:1,2014-12-04T04:00:00Z,27.8903,-94.0367,2.0,28.98760331,4.97298703,-99999.0,'11133222,11111222,99999999' 
TABS,ioos:station:wmo:42046:1,2014-12-04T04:30:00Z,27.8903,-94.0367,2.0,25.8990011,3.84629692,-99999.0,'11133222,11111222,99999999' 
TABS,ioos:station:wmo:42046:1,2014-12-04T05:00:00Z,27.8903,-94.0367,2.0,0.0,0.0,-99999.0,'11133222,11111222,99999999' 
TABS,ioos:station:wmo:42046:1,2014-12-04T05:30:00Z,27.8903,-94.0367,2.0,9.141829305,0.881192374,-99999.0,'11133222,11111222,99999999' 
TABS,ioos:station:wmo:42046:1,2014-12-04T06:00:00Z,27.8903,-94.0367,2.0,23.31786432,1.894755921,-99999.0,'11133222,11111222,99999999' 
TABS,ioos:station:wmo:42046:1,2014-12-04T06:30:00Z,27.8903,-94.0367,2.0,12.61562536,4.303905203,-99999.0,'11133222,11111222,99999999' 
TABS,ioos:station:wmo:42046:1,2014-12-04T07:00:00Z,27.8903,-94.0367,2.0,309.9648925,5.075401462,-99999.0,'11133222,11111222,99999999' 
TABS,ioos:station:wmo:42046:1,2014-12-04T07:30:00Z,27.8903,-94.0367,2.0,0.0,0.0,-99999.0,'11133222,11111222,99999999' 
TABS,ioos:station:wmo:42046:1,2014-12-04T08:00:00Z,27.8903,-94.0367,2.0,88.66778326,2.150581317,-99999.0,'11133222,11111222,99999999' 
TABS,ioos:station:wmo:42046:1,2014-12-04T08:30:00Z,27.8903,-94.0367,2.0,54.58735321,4.797551459,-99999.0,'11133222,11111222,99999999' 
TABS,ioos:station:wmo:42046:1,2014-12-04T09:00:00Z,27.8903,-94.0367,2.0,44.09072691,4.009800494,-99999.0,'11133222,11111222,99999999' 
TABS,ioos:station:wmo:42046:1,2014-12-04T09:30:00Z,27.8903,-94.0367,2.0,22.30636335,5.901626894,-99999.0,'11133222,11111222,99999999' 
TABS,ioos:station:wmo:42046:1,2014-12-04T10:00:00Z,27.8903,-94.0367,2.0,55.24036511,5.051425541,-99999.0,'11133222,11111222,99999999' 
TABS,ioos:station:wmo:42046:1,2014-12-04T10:30:00Z,27.8903,-94.0367,2.0,74.16128033,5.166139758,-99999.0,'11133222,11111222,99999999' 
TABS,ioos:station:wmo:42046:1,2014-12-04T11:00:00Z,27.8903,-94.0367,2.0,73.86933917,4.247210849,-99999.0,'11133222,11111222,99999999' 
TABS,ioos:station:wmo:42046:1,2014-12-04T11:30:00Z,27.8903,-94.0367,2.0,69.92852107,1.107248843,-99999.0,'11133222,11111222,99999999' 
TABS,ioos:station:wmo:42046:1,2014-12-04T12:00:00Z,27.8903,-94.0367,2.0,15.25529349,4.674719243,-99999.0,'11133222,11111222,99999999' 
TABS,ioos:station:wmo:42046:1,2014-12-04T12:30:00Z,27.8903,-94.0367,2.0,51.89251223,1.296302434,-99999.0,'11133222,11111222,99999999' 
TABS,ioos:station:wmo:42046:1,2014-12-04T13:00:00Z,27.8903,-94.0367,2.0,80.84621195,6.411653453,-99999.0,'11133222,11111222,99999999' 
TABS,ioos:station:wmo:42046:1,2014-12-04T13:30:00Z,27.8903,-94.0367,2.0,29.3715632,2.283527972,-99999.0,'11133222,11111222,99999999' 
TABS,ioos:station:wmo:42046:1,2014-12-04T14:00:00Z,27.8903,-94.0367,2.0,81.58680274,4.579279419,-99999.0,'11133222,11111222,99999999' 
TABS,ioos:station:wmo:42046:1,2014-12-04T14:30:00Z,27.8903,-94.0367,2.0,86.62621384,4.587951613,-99999.0,'11133222,11111222,99999999' 
TABS,ioos:station:wmo:42046:1,2014-12-04T15:00:00Z,27.8903,-94.0367,2.0,42.11264025,6.457011693,-99999.0,'11133222,11111222,99999999' 
TABS,ioos:station:wmo:42046:1,2014-12-04T15:30:00Z,27.8903,-94.0367,2.0,18.57460621,10.39127519,-99999.0,'11111222,11111222,99999999' 
TABS,ioos:station:wmo:42046:1,2014-12-04T16:00:00Z,27.8903,-94.0367,2.0,19.87759541,7.411565287,-99999.0,'11133222,11111222,99999999' 
TABS,ioos:station:wmo:42046:1,2014-12-04T16:30:00Z,27.8903,-94.0367,2.0,35.77620452,7.543374576,-99999.0,'11133222,11111222,99999999' 
TABS,ioos:station:wmo:42046:1,2014-12-04T17:00:00Z,27.8903,-94.0367,2.0,19.14424502,7.409784072,-99999.0,'11133222,11111222,99999999' 